TimeCST,TemperatureF,Dew PointF,Humidity,Sea Level PressureIn,VisibilityMPH,Wind Direction,Wind SpeedMPH,Gust SpeedMPH,PrecipitationIn,Events,Conditions,WindDirDegrees,DateUTC
12:53 AM,50.0,39.9,68,30.22,10.0,South,4.6,-,N/A,,Clear,180,2012-11-21 06:53:00
1:53 AM,48.9,39.9,71,30.21,10.0,South,5.8,-,N/A,,Clear,180,2012-11-21 07:53:00
2:53 AM,45.0,39.0,80,30.21,9.0,SSW,4.6,-,N/A,,Clear,200,2012-11-21 08:53:00
3:53 AM,46.9,39.9,77,30.21,10.0,SSW,5.8,-,N/A,,Clear,200,2012-11-21 09:53:00
4:53 AM,45.0,39.9,82,30.21,10.0,SSW,6.9,-,N/A,,Clear,210,2012-11-21 10:53:00
5:53 AM,46.9,39.9,77,30.20,10.0,SSW,6.9,-,N/A,,Clear,200,2012-11-21 11:53:00
6:53 AM,46.9,39.9,77,30.22,10.0,SSW,8.1,-,N/A,,Clear,200,2012-11-21 12:53:00
7:53 AM,48.0,41.0,77,30.22,10.0,SSW,9.2,-,N/A,,Clear,210,2012-11-21 13:53:00
8:53 AM,52.0,43.0,71,30.22,10.0,SSW,9.2,-,N/A,,Clear,200,2012-11-21 14:53:00
9:53 AM,57.0,43.0,59,30.22,10.0,SSW,11.5,-,N/A,,Clear,200,2012-11-21 15:53:00
10:53 AM,63.0,41.0,45,30.21,10.0,SSW,12.7,-,N/A,,Clear,210,2012-11-21 16:53:00
11:53 AM,66.0,37.9,36,30.17,10.0,SSW,13.8,21.9,N/A,,Clear,210,2012-11-21 17:53:00
12:53 PM,69.1,37.0,31,30.14,10.0,SW,18.4,23.0,N/A,,Clear,220,2012-11-21 18:53:00
1:53 PM,70.0,37.9,31,30.12,10.0,SSW,12.7,19.6,N/A,,Clear,210,2012-11-21 19:53:00
2:53 PM,70.0,37.9,31,30.09,10.0,South,10.4,-,N/A,,Clear,190,2012-11-21 20:53:00
3:53 PM,69.1,37.0,31,30.08,10.0,South,10.4,18.4,N/A,,Clear,180,2012-11-21 21:53:00
4:53 PM,66.0,37.0,34,30.07,10.0,South,9.2,-,N/A,,Clear,170,2012-11-21 22:53:00
5:53 PM,62.1,37.9,41,30.07,10.0,South,9.2,-,N/A,,Clear,170,2012-11-21 23:53:00
6:53 PM,61.0,39.0,44,30.06,10.0,South,11.5,-,N/A,,Clear,170,2012-11-22 00:53:00
7:53 PM,59.0,37.9,46,30.05,10.0,South,12.7,-,N/A,,Clear,170,2012-11-22 01:53:00
8:53 PM,57.0,37.9,49,30.04,10.0,South,11.5,-,N/A,,Clear,170,2012-11-22 02:53:00
9:53 PM,55.9,37.0,49,30.03,10.0,South,11.5,18.4,N/A,,Clear,180,2012-11-22 03:53:00
10:53 PM,55.0,37.0,51,30.01,10.0,South,13.8,-,N/A,,Clear,180,2012-11-22 04:53:00
11:53 PM,54.0,36.0,51,29.99,10.0,South,11.5,-,N/A,,Clear,180,2012-11-22 05:53:00